User: anonymous   Login
Location: Home
(42.5358°N, 72.7383°W)
Time: 01:44:48
(UTC-04:00)
Language:

UKube-1 - Orbit

View from above orbital plane
View from above orbital plane
View from above satellite
View from above satellite

Ground track
Ground track

The orbit data is extracted from the following two-line orbital elements,

1 40074U 14037F   22221.63250720  .00000903  00000-0  11142-3 0  9998
2 40074  98.3764 105.0709 0005351 110.2049 249.9832 14.85547899437963
Epoch (UTC): 09 August 2022 15:10:48
Eccentricity: 0.0005351
inclination: 98.3764°
perigee height: 608 km
apogee height: 615 km
right ascension of ascending node: 105.0709°
argument of perigee: 110.2049°
revolutions per day: 14.85547899
mean anomaly at epoch: 249.9832°
orbit number at epoch: 43796

The dashed part of the orbit path shows where the satellite is in the earth's shadow,  

DLR